Theta_e
328 322 316 316 326 328 331 330 331 331 332 332 333 332 329 332 329 327 328 330 333 334 333 331 333 331 333 334 331 328 327 326 325 324 321 318 318 319 326 332 333 335 330
318 317 316 316 318 323 325 333 331 331 331 331 331 329 326 326 327 327 327 327 328 333 332 334 331 330 329 325 325 326 326 327 325 326 325 322 321 327 339 336 334 334 335
320 316 315 316 316 316 316 316 317 319 322 322 320 324 324 325 326 325 324 323 322 322 322 330 326 327 327 326 326 326 325 323 322 322 325 328 323 333 338 337 334 334 335
322 315 315 315 315 315 315 315 315 315 317 319 319 317 319 320 322 323 323 323 325 325 324 324 324 323 322 322 323 325 325 326 325 323 321 325 329 333 331 330 333 337 335
318 314 314 313 313 313 313 313 314 314 316 317 316 315 314 314 314 315 315 317 318 318 319 319 320 321 322 324 325 325 325 324 325 326 325 322 323 328 332 331 327 323 331
315 314 314 313 313 312 311 311 311 311 311 311 311 310 309 309 308 309 309 310 311 311 312 312 312 312 314 315 316 317 319 323 325 324 324 324 323 322 322 322 325 331 321
315 314 314 314 311 310 309 309 308 308 308 308 306 305 304 303 303 303 303 303 303 303 303 303 303 303 303 303 304 306 309 312 314 315 320 325 326 325 325 323 320 319 327
316 314 314 313 310 309 309 309 308 308 306 304 303 303 303 303 303 303 303 302 302 302 302 302 302 302 302 302 302 302 302 302 303 306 312 315 322 326 326 328 325 324 318
316 314 313 312 309 308 309 309 309 307 304 303 304 304 304 304 303 302 302 302 302 302 302 302 302 302 302 302 302 302 302 302 302 302 303 305 312 322 328 329 330 327 326
317 315 313 312 309 308 308 310 309 305 303 303 304 305 305 303 303 302 302 302 303 303 303 303 303 302 302 302 302 302 302 302 302 302 302 302 307 320 326 326 326 326 324
317 317 314 312 310 308 308 309 308 304 303 303 305 306 306 305 303 303 303 303 304 304 304 304 304 303 303 302 302 301 301 301 301 301 301 301 302 302 311 318 322 320 319
316 316 315 313 311 308 307 309 309 306 304 304 305 306 305 304 303 303 303 303 303 303 304 304 305 304 303 302 301 300 300 300 300 301 301 301 301 301 302 303 304 306 308
315 314 315 313 311 309 308 308 309 308 306 305 305 306 306 304 303 302 302 303 303 303 304 304 304 304 304 303 302 301 300 300 300 300 300 300 300 300 300 301 301 302 302
314 314 314 313 311 310 309 308 308 309 307 305 304 305 305 304 303 302 302 302 303 303 303 303 304 304 304 302 301 300 299 299 299 299 299 299 300 300 300 300 301 301 302
313 313 313 312 312 310 309 308 308 308 307 305 304 304 304 303 302 302 301 302 302 303 302 302 303 303 302 301 299 299 299 298 299 299 299 300 300 301 301 301 300 301 301
313 313 312 311 311 310 309 308 307 307 306 304 303 303 303 302 302 302 301 301 302 302 302 302 301 301 300 298 298 297 298 298 298 298 299 300 300 300 300 301 301 301 302
313 312 312 311 309 309 308 307 307 306 305 304 302 302 302 301 301 301 301 301 301 301 301 300 300 299 298 298 297 297 297 297 298 299 299 299 299 300 300 300 300 300 300
313 312 311 311 309 308 307 306 305 304 303 303 301 301 300 300 300 300 301 301 301 300 300 299 299 299 298 297 297 297 296 297 298 298 298 298 299 299 299 299 298 299 299
314 312 311 310 309 308 306 305 303 303 302 302 301 301 300 300 299 300 300 300 300 300 299 298 297 298 297 295 296 296 296 297 297 298 298 298 297 297 296 296 297 297 297
314 313 310 309 308 307 305 303 301 300 300 300 300 300 299 299 298 299 300 300 299 299 298 297 297 296 295 295 294 295 296 297 298 298 298 297 296 295 295 295 296 296 297
313 312 310 309 307 307 305 303 301 301 301 300 300 299 298 298 298 299 299 299 299 298 297 297 296 295 295 294 294 296 297 296 296 296 295 295 295 294 294 295 295 296 295
314 311 309 308 307 307 305 305 304 303 301 300 299 298 298 297 297 298 299 298 298 298 297 296 295 295 294 292 291 290 291 294 293 293 294 294 296 295 294 293 292 293 293
312 311 310 308 307 307 306 304 302 299 298 298 298 297 297 297 296 297 298 297 297 297 297 296 295 294 292 291 290 288 289 289 289 292 292 292 292 292 292 293 292 291 291
312 311 309 308 307 306 305 304 304 303 303 303 302 300 298 296 296 296 297 296 296 296 297 295 294 292 291 291 290 288 287 287 288 287 288 290 291 291 290 290 291 291 291
311 310 309 308 307 306 305 304 304 302 301 301 300 299 297 296 295 295 296 296 296 296 296 295 293 292 291 290 289 288 288 287 287 286 287 287 288 290 290 290 289 290 290
310 308 307 307 307 307 306 305 304 303 302 300 299 298 298 297 295 295 295 295 295 295 295 294 293 291 290 289 288 287 286 286 287 285 285 286 286 287 288 289 289 289 289
Wind_Speed
17 14 12 11 11 11 8 6 4 2 2 1 2 2 3 2 4 4 4 4 5 4 4 4 4 4 5 4 5 6 6 7 7 8 7 7 6 6 5 5 5 5 5
15 15 13 11 11 10 10 8 7 5 3 2 3 2 4 5 4 3 3 3 2 2 3 3 3 4 5 6 6 7 8 8 8 8 8 7 5 4 4 5 5 5 5
16 15 12 11 10 10 8 6 6 7 7 4 3 3 4 3 4 5 4 4 4 3 3 2 5 5 6 6 7 7 8 8 9 8 7 7 5 5 4 6 6 5 5
18 15 13 11 10 9 9 7 6 6 6 6 6 7 6 5 5 6 6 6 6 6 6 8 9 8 8 9 9 11 11 11 11 10 8 7 7 6 10 9 6 6 7
17 15 12 12 11 10 9 8 7 7 7 8 7 6 5 5 6 7 8 9 9 10 10 11 11 11 11 11 11 12 11 12 12 10 11 9 8 9 10 12 11 10 9
19 16 14 14 13 11 11 10 9 8 7 6 4 3 3 4 5 6 6 7 8 9 10 11 12 12 12 13 14 14 15 14 14 12 11 10 11 11 13 13 12 11 11
21 19 17 15 14 12 11 10 8 7 5 4 3 2 2 3 5 6 6 7 7 7 7 8 9 10 12 12 13 13 14 15 16 15 14 13 12 12 13 15 15 14 13
22 20 19 17 16 16 12 8 6 5 4 3 2 1 1 2 3 3 4 4 4 4 5 6 6 7 8 8 9 9 11 13 14 14 15 15 13 13 15 18 18 16 15
22 22 21 20 20 16 12 10 9 8 6 5 2 1 2 3 2 1 1 2 4 5 6 7 9 9 9 9 9 9 9 10 10 11 13 12 12 12 12 14 19 18 15
23 24 23 22 21 19 16 13 11 9 8 7 5 3 3 3 2 1 1 3 4 6 7 8 10 12 12 12 12 11 10 9 8 8 8 8 11 14 14 13 16 19 18
26 26 27 26 24 22 20 17 15 13 11 9 6 4 5 6 4 4 4 6 7 9 10 11 13 13 13 14 14 13 13 12 11 10 9 9 10 13 19 21 23 23 22
27 29 29 29 28 25 23 20 18 16 13 11 8 7 7 7 8 7 7 7 8 9 10 12 14 15 16 16 15 15 14 14 13 13 12 12 12 12 14 16 19 21 22
27 29 30 31 30 29 27 24 22 19 17 15 12 11 11 11 11 10 8 8 9 9 11 13 14 16 16 17 16 15 14 14 14 13 13 13 14 15 15 15 16 18 18
31 31 31 32 33 32 30 28 25 22 19 17 16 15 13 13 12 11 10 10 9 10 12 13 15 17 19 18 17 15 15 15 16 16 15 15 14 14 15 15 16 17 18
33 33 33 34 35 35 34 32 29 26 23 21 20 18 16 15 14 13 13 11 10 12 13 15 17 18 18 17 15 15 14 14 14 15 17 16 16 15 17 17 17 18 18
35 34 34 35 36 37 36 34 31 28 26 24 23 21 19 17 16 15 13 12 11 12 14 17 18 18 18 17 14 14 14 15 15 15 16 17 17 16 16 17 17 19 21
37 35 35 36 35 36 36 35 33 30 29 27 25 23 21 20 17 15 14 13 12 12 15 16 17 18 17 17 17 16 16 16 16 17 16 15 15 14 15 16 17 18 20
37 37 35 36 37 36 35 36 34 32 30 27 25 24 22 21 19 17 15 14 13 14 15 17 17 17 17 19 18 17 17 16 17 16 16 15 13 12 12 11 13 16 17
39 39 39 39 39 37 34 35 34 32 30 28 26 25 24 24 21 18 16 15 12 13 14 15 16 18 18 19 20 21 20 19 15 17 15 9 12 18 20 18 18 15 16
40 39 40 40 39 37 34 36 35 33 32 29 28 27 27 26 24 20 18 15 12 12 14 15 15 16 18 22 25 25 23 18 19 14 8 21 21 18 19 22 21 19 18
43 42 42 41 40 38 39 40 39 38 35 33 31 30 28 27 25 21 19 15 12 12 15 16 15 16 17 21 26 27 23 20 13 6 22 22 20 24 22 19 21 26 27
45 43 41 40 39 39 39 39 40 38 37 33 32 31 29 28 27 24 21 16 13 14 16 16 17 17 17 20 23 24 19 18 7 29 14 27 17 17 20 25 30 31 30
44 44 41 39 38 39 38 38 39 36 34 36 37 34 32 31 30 27 24 19 14 14 17 17 17 17 17 17 17 13 8 6 36 25 35 21 27 30 31 32 34 34 34
43 40 37 35 37 39 39 40 42 43 44 45 40 36 34 33 32 30 26 20 16 15 19 18 17 17 18 18 17 14 14 18 13 19 23 35 32 36 42 39 36 35 36
39 37 35 34 36 38 39 40 43 44 43 40 37 35 35 34 33 32 28 24 19 16 19 18 17 18 20 20 19 19 20 21 21 21 31 25 43 44 43 40 47 42 39
34 34 35 36 37 38 38 40 42 44 43 41 39 39 38 36 35 34 31 27 22 18 20 19 18 20 21 21 19 18 19 21 24 24 36 44 46 46 47 49 44 41 41
Wind_Direction
191 191 190 197 190 178 169 184 185 170 147 262 276 306 311 327 332 347 359 14 24 23 13 2 358 341 335 344 341 336 335 331 333 335 336 333 334 334 339 342 346 358 352
187 188 189 192 188 179 180 159 178 173 190 225 265 289 297 308 318 329 328 328 349 47 18 326 296 307 322 330 323 325 325 322 322 330 332 332 342 332 340 331 331 336 342
188 188 190 192 186 183 186 202 196 192 205 228 245 253 279 312 319 322 327 311 301 307 297 284 281 298 303 308 306 303 305 311 313 317 328 324 328 342 314 304 327 321 313
194 184 190 190 191 189 184 190 196 197 205 222 251 267 278 272 270 273 276 278 269 275 285 295 304 310 307 304 305 305 309 316 317 315 311 311 309 311 297 298 307 308 300
196 187 187 190 193 195 194 194 198 204 205 220 236 249 257 266 268 272 273 270 275 281 283 283 287 289 288 288 291 295 300 302 305 310 310 302 294 301 293 303 304 290 298
195 196 194 198 199 195 190 187 185 183 192 196 213 232 260 282 285 279 272 274 279 284 287 292 292 291 287 287 284 284 286 288 291 298 299 296 297 298 295 298 296 302 293
199 200 205 206 205 195 186 182 178 179 188 188 212 240 269 274 284 295 299 301 301 298 297 295 296 297 296 295 294 294 291 287 284 284 285 291 293 293 290 296 300 302 296
209 207 210 213 206 197 194 197 196 190 186 197 191 196 275 313 316 319 326 329 335 340 339 340 334 329 322 323 317 309 300 291 286 282 278 275 277 278 280 286 288 286 287
216 215 215 211 208 207 204 207 201 189 182 180 193 277 322 312 303 304 333 355 357 358 351 343 339 335 328 324 317 317 310 305 308 294 280 272 266 260 269 282 291 285 281
222 222 222 217 215 214 213 214 209 197 190 191 207 245 297 298 285 309 348 2 358 350 346 336 334 330 327 324 318 317 315 314 308 303 301 288 262 257 252 249 266 284 283
227 228 226 222 220 217 218 215 209 202 200 208 229 259 281 282 279 286 306 321 330 336 336 335 333 327 321 316 314 313 315 315 313 313 308 294 281 263 255 255 255 257 270
231 229 231 227 225 222 221 218 214 210 210 218 233 259 273 271 266 267 279 296 313 320 322 324 323 322 320 316 314 312 310 311 314 316 316 309 299 286 276 273 270 262 257
240 233 232 230 229 226 225 224 219 216 217 222 228 239 250 256 256 255 263 280 293 303 310 314 318 318 317 312 309 305 303 304 304 304 308 309 308 305 299 292 288 286 286
239 239 236 232 230 229 228 227 225 224 223 224 229 233 241 250 254 257 267 277 287 291 295 303 312 317 318 317 312 307 307 310 312 313 311 308 304 301 297 292 290 289 292
240 239 236 234 231 229 229 227 225 224 223 226 230 233 237 240 248 253 259 269 277 286 295 304 307 312 315 316 315 309 308 311 314 314 312 309 304 299 293 289 284 281 278
244 240 237 234 231 229 228 227 227 225 225 225 229 232 233 234 242 250 257 266 272 282 292 300 308 319 325 323 321 316 318 320 318 316 313 310 302 295 290 282 276 273 274
247 242 238 236 232 229 228 227 226 225 225 226 228 230 230 231 236 242 250 256 265 281 293 302 312 323 325 323 323 324 324 323 319 318 317 318 314 309 296 290 289 287 284
248 243 238 237 235 232 228 226 225 224 225 226 227 229 230 232 234 236 241 248 261 282 293 302 314 324 327 325 324 325 324 326 327 321 318 316 319 327 334 327 313 306 297
251 243 236 235 235 233 227 225 224 225 226 227 229 231 231 231 229 231 238 246 262 283 293 304 316 322 327 326 325 327 331 330 329 321 325 356 343 329 320 321 322 322 322
247 245 237 234 231 231 228 224 223 224 225 226 228 230 230 228 225 227 236 242 260 280 293 303 311 322 329 327 329 328 331 331 327 328 327 327 325 323 319 315 315 315 326
239 236 233 230 228 226 223 219 220 222 224 225 226 227 227 226 225 227 232 238 260 284 294 300 304 317 328 327 327 326 333 336 336 337 324 318 326 305 311 312 315 308 308
234 231 230 230 228 227 226 224 225 225 225 228 229 228 228 228 228 229 231 235 256 281 293 298 302 313 323 328 331 335 336 343 332 320 322 314 322 322 315 307 307 303 306
226 227 228 231 228 228 228 224 224 221 224 224 225 226 227 228 229 230 231 235 248 277 288 290 295 304 314 318 323 328 333 312 321 325 322 315 317 312 309 308 304 304 307
225 227 231 232 226 225 226 224 224 225 224 228 231 231 230 230 230 230 231 236 248 271 284 284 288 298 305 307 310 313 309 299 301 309 314 309 311 310 311 308 305 307 307
222 227 230 227 223 225 226 227 227 228 230 234 233 230 229 229 230 231 233 237 244 262 279 279 286 294 299 302 304 308 309 306 303 293 298 302 307 311 312 311 312 311 313
222 226 224 222 221 223 225 227 229 231 231 229 230 228 229 229 230 232 234 237 242 253 274 277 283 288 294 297 300 303 302 304 308 306 305 309 310 314 312 310 311 314 316